Temp
65 65 65 65 64 64 64 65 66 64 63 62 61 62 61 61 58 56 54 57 57 60 65 62 65 68 68 69 70 71 71 73 75 75 74 74 74 74 73 72 72 72 72 72 72 73 73 73 73 74 75 75 75 76 76 76 76 76 76 77 77 77 77 76 76 76 76 76 75 75 76 76 77 78
65 66 65 65 65 66 64 64 64 63 62 61 60 60 61 62 60 58 55 55 58 58 62 64 63 66 67 68 68 69 69 72 73 73 74 74 74 72 72 72 72 72 72 71 71 72 72 72 72 72 72 73 74 74 75 75 75 75 75 76 76 76 76 75 75 76 76 76 76 75 75 76 76 76
67 65 65 64 64 65 65 65 63 63 62 61 61 60 59 61 62 60 58 54 57 60 59 62 65 65 66 67 67 67 68 70 72 72 73 74 74 74 73 72 72 71 71 71 70 70 70 70 71 71 71 71 72 73 74 74 74 74 75 75 76 75 75 74 74 75 75 75 75 74 75 75 75 76
67 65 64 65 64 64 64 64 63 61 61 62 60 59 59 59 58 58 57 56 56 61 60 61 63 65 65 66 65 66 67 70 72 71 72 73 75 74 73 73 72 71 70 70 70 69 68 69 70 70 71 71 72 73 72 72 73 73 74 74 74 75 74 73 73 74 74 75 74 74 74 74 75 75
65 65 64 64 65 64 64 64 64 62 61 61 61 61 59 59 58 57 56 56 57 61 63 62 62 65 65 64 66 65 66 67 68 70 70 71 72 73 74 74 73 71 70 69 69 68 68 68 69 70 70 71 71 72 72 72 71 72 72 72 72 73 73 72 72 73 73 74 74 74 74 74 74 74
65 65 64 64 64 64 64 63 63 63 62 61 59 59 60 58 59 59 57 57 57 57 61 61 63 63 65 62 65 64 64 65 67 67 69 71 71 71 72 73 74 73 70 68 67 68 68 68 68 68 69 70 70 71 71 71 70 71 70 70 70 71 70 70 71 72 72 73 73 73 73 73 73 73
64 63 64 64 65 66 64 63 63 63 62 62 61 60 60 59 59 59 58 58 57 57 58 61 61 62 63 62 63 65 65 66 66 66 67 69 71 72 72 72 73 73 71 69 68 67 67 68 68 68 68 68 68 69 69 69 69 69 69 69 70 69 69 69 70 71 71 72 72 73 73 73 73 72
63 63 63 64 64 65 63 63 62 62 62 62 61 60 60 59 59 59 59 59 58 58 57 60 60 62 61 62 64 65 66 65 66 67 68 69 70 71 72 72 72 72 70 69 68 67 67 67 67 67 67 67 67 66 66 67 68 67 67 67 68 68 68 67 68 70 69 70 71 72 72 72 72 70
64 64 63 64 64 63 63 63 62 62 61 62 61 60 60 59 59 60 59 59 59 59 58 59 61 62 61 62 63 64 63 64 65 67 67 68 69 70 72 73 73 72 70 69 69 68 67 67 67 67 67 67 66 66 65 66 66 66 66 66 66 66 67 66 66 67 67 68 68 68 69 70 71 70
63 63 63 64 64 63 62 63 63 62 62 62 60 60 59 59 60 58 58 59 60 60 59 59 59 60 60 60 62 64 64 63 63 64 65 67 68 67 67 69 72 74 74 73 72 70 69 68 67 67 67 67 66 66 65 65 64 64 64 63 63 64 65 65 66 65 65 66 67 67 68 68 69 69
63 63 64 64 63 63 63 63 62 62 61 62 61 61 60 61 59 58 58 59 60 60 59 59 59 58 60 60 59 63 64 64 63 61 61 62 65 66 66 67 70 72 72 73 72 72 72 70 70 67 66 66 66 66 65 64 63 63 62 61 61 61 62 62 64 65 64 64 65 65 64 66 68 69
64 64 64 64 63 63 63 62 62 61 61 61 61 61 61 60 59 58 59 60 60 59 59 58 57 58 58 59 62 63 63 61 61 63 62 60 62 64 67 68 67 70 70 70 72 71 71 70 69 67 67 66 66 66 66 66 65 64 62 61 62 62 61 61 62 62 62 62 62 62 62 62 64 66
63 63 64 64 63 65 67 63 62 62 61 62 60 61 61 60 59 59 59 60 60 59 58 57 58 57 57 58 59 60 60 59 59 62 63 62 64 64 64 66 69 69 68 70 70 71 72 71 71 70 69 69 68 67 67 68 68 66 63 62 63 63 62 61 61 61 61 61 61 60 61 62 63 65
63 63 63 64 68 66 65 63 61 59 58 58 61 62 60 60 59 59 60 60 59 58 56 56 57 56 56 58 59 60 61 63 63 62 61 60 62 62 63 64 67 69 69 68 67 70 72 72 71 71 70 72 70 70 69 69 69 68 65 63 63 63 63 62 61 60 60 60 60 60 59 60 62 63
63 63 62 61 66 67 66 65 65 62 60 59 58 57 59 59 61 59 59 60 59 58 57 57 57 56 56 58 60 61 62 63 62 61 62 61 61 60 59 58 64 69 69 67 67 68 71 71 70 71 72 73 72 71 71 70 68 67 66 64 64 63 63 63 62 61 60 59 59 59 59 59 60 61
62 62 63 63 64 64 64 64 64 63 63 60 59 58 57 57 57 58 60 60 58 58 56 56 57 56 57 58 60 61 62 62 61 62 61 60 60 59 59 60 60 66 69 67 66 67 71 71 70 70 72 73 74 74 70 68 68 66 65 65 64 64 63 63 64 63 62 61 61 61 61 61 61 61
62 62 63 63 64 64 66 66 64 62 62 60 59 57 56 56 56 56 57 58 60 59 57 56 56 57 58 58 60 62 62 63 60 60 60 60 60 60 59 60 62 65 70 68 66 65 69 69 68 69 72 73 74 74 70 68 68 67 65 65 65 64 63 63 63 63 63 62 61 61 61 60 60 60
62 62 62 62 63 63 62 62 61 61 60 60 61 60 60 61 61 58 57 57 56 57 58 57 57 59 60 59 61 63 63 61 59 59 59 60 60 60 60 62 63 66 68 66 66 65 68 69 68 68 71 73 73 74 71 67 67 66 65 65 64 64 63 63 63 62 62 62 61 60 59 59 58 58
63 62 63 62 62 62 62 62 62 60 60 59 59 59 59 60 59 59 60 61 61 61 61 60 60 61 62 61 61 62 62 62 61 61 60 60 60 61 62 62 63 63 65 66 65 62 67 70 68 69 70 72 72 74 70 67 66 66 64 64 64 63 63 63 63 62 61 61 61 60 59 58 57 56
62 62 62 62 62 62 61 60 58 59 60 57 57 58 58 58 58 59 59 59 60 61 61 62 62 62 62 59 61 61 60 60 61 61 62 61 60 59 58 58 61 61 64 66 64 63 65 69 68 68 70 71 70 72 74 68 65 65 64 64 64 63 62 61 62 61 61 61 61 60 58 56 55 54
62 62 62 62 62 61 61 59 56 56 56 56 55 55 56 56 56 58 60 59 58 57 56 55 55 55 55 56 57 57 57 59 60 60 58 58 59 57 56 58 59 60 63 65 66 64 63 67 68 68 68 69 69 71 72 73 66 64 63 63 63 62 61 61 60 61 61 61 60 60 59 56 55 55
61 62 67 67 62 60 60 57 54 55 54 54 54 54 55 55 56 57 60 61 61 58 57 57 58 58 59 59 59 59 59 59 59 60 56 59 59 57 58 56 59 62 63 64 68 64 64 68 68 67 67 67 68 70 72 72 71 64 62 62 62 61 60 60 60 60 60 61 60 60 58 56 55 57
60 59 61 65 63 60 58 53 52 52 51 54 53 54 55 56 56 58 60 59 58 58 59 61 62 62 62 64 65 65 61 60 61 63 61 61 59 57 58 59 59 58 60 66 69 63 65 66 68 67 64 65 67 69 70 70 71 69 67 66 64 61 61 60 59 58 59 59 59 59 57 55 55 60
58 56 57 60 59 55 53 51 49 49 51 54 53 56 56 56 56 59 58 58 57 58 59 59 60 60 62 63 65 65 65 65 66 64 64 63 61 59 58 59 60 58 61 66 69 66 67 68 67 68 68 65 63 64 68 68 70 70 69 68 66 63 62 61 58 57 57 57 58 58 56 54 56 61
56 56 56 57 59 56 53 49 47 48 49 51 54 55 56 58 58 54 54 56 57 58 59 59 59 60 62 62 63 63 63 64 65 65 64 64 62 60 59 59 59 61 64 67 67 68 65 67 66 66 66 67 65 64 64 66 68 69 69 69 68 68 65 64 63 62 56 55 55 55 54 55 54 60
55 55 55 57 58 55 53 48 47 47 48 48 55 57 52 51 50 54 58 57 57 57 57 57 57 59 59 59 60 61 62 62 63 63 63 63 64 64 63 61 60 60 62 68 64 68 67 65 67 65 65 65 64 63 62 65 66 67 67 67 69 67 66 66 64 63 61 60 58 55 57 54 55 56
55 56 57 58 58 53 49 47 47 48 48 48 52 50 48 49 52 55 56 57 56 55 56 56 56 57 57 57 58 59 60 61 62 62 63 63 64 64 65 65 65 65 68 70 69 69 68 66 67 66 65 66 64 63 63 63 66 67 66 66 67 65 65 66 64 64 61 60 61 55 54 54 54 56
55 55 55 57 52 47 45 46 47 48 48 54 50 48 49 51 55 56 56 54 54 55 55 55 55 55 56 57 57 58 59 60 61 62 63 63 63 63 64 65 66 67 68 69 69 70 69 67 67 68 68 65 64 63 63 64 65 66 66 67 66 65 65 65 65 64 62 62 61 58 58 56 56 56
57 55 51 49 48 49 48 48 49 50 49 48 48 48 50 55 56 55 54 54 55 54 54 55 55 55 56 56 57 58 59 60 61 61 62 63 63 63 64 65 66 67 68 71 70 70 69 68 67 68 67 66 65 65 64 63 64 65 66 66 65 65 64 65 65 64 62 62 61 59 59 58 57 58
54 52 51 51 51 52 54 54 54 57 56 53 53 53 55 54 53 54 53 54 53 53 54 54 54 54 55 56 57 59 59 58 58 58 58 59 59 60 62 64 64 66 69 71 72 69 69 69 67 66 66 66 66 65 65 63 62 63 66 66 67 66 65 65 65 65 63 62 62 60 61 62 60 59
54 54 54 54 52 50 52 56 57 56 56 55 55 54 55 54 54 54 53 52 52 53 53 54 54 54 55 56 57 56 56 56 57 58 58 57 57 58 58 62 63 64 67 70 70 70 68 68 68 67 65 64 64 65 65 65 63 63 65 66 67 65 65 66 66 65 64 64 64 62 62 63 62 62
52 53 52 54 58 58 57 56 56 55 54 56 55 53 53 52 53 56 56 56 52 52 53 53 54 54 54 54 54 55 55 56 56 57 57 57 57 57 57 57 58 61 64 65 66 69 72 68 67 66 67 65 64 64 64 64 64 64 64 65 67 67 66 65 66 66 66 65 64 63 62 63 63 62
51 51 55 56 57 55 55 54 54 52 52 52 53 53 53 52 50 50 50 49 49 50 52 51 52 52 52 53 53 54 54 55 55 56 56 57 56 57 57 55 56 55 56 61 64 65 67 68 69 68 67 68 67 66 64 63 63 64 64 64 65 66 66 67 67 66 66 65 64 64 63 64 65 64
47 50 54 53 53 53 52 51 51 51 51 50 50 50 53 51 50 50 50 49 48 50 51 51 51 50 51 51 52 52 53 54 54 55 55 56 57 56 56 55 54 56 57 56 58 62 65 66 65 65 65 63 62 62 64 65 63 63 64 65 65 65 66 67 67 67 66 66 65 63 63 64 65 66
52 55 54 53 52 52 52 51 50 50 50 51 49 49 49 49 50 50 49 48 49 50 50 50 50 50 50 50 51 51 52 53 53 54 55 56 56 55 56 55 54 55 55 56 57 57 60 64 64 64 62 62 62 61 59 57 62 63 63 64 65 65 65 66 67 67 66 66 66 64 64 64 64 66
53 54 54 53 52 50 50 51 51 50 49 49 49 48 48 49 50 49 48 48 48 49 49 49 49 49 49 50 50 51 51 52 52 53 53 54 54 54 56 56 56 55 55 55 56 58 58 60 64 62 61 60 61 59 59 57 57 60 64 63 63 64 65 65 66 67 66 65 66 65 63 63 64 66
54 54 53 52 51 50 49 49 49 49 49 49 49 48 48 47 48 48 49 48 48 49 49 49 48 49 49 49 50 50 51 51 51 52 52 52 53 54 54 55 57 56 55 55 57 57 58 57 58 61 61 60 60 59 59 59 55 53 55 62 64 65 65 65 65 65 66 66 65 65 64 64 64 65
54 53 53 52 51 50 51 50 50 49 49 49 48 48 48 48 48 48 48 47 48 48 49 48 48 49 49 49 49 49 49 51 51 51 51 51 52 52 52 53 54 55 55 55 56 57 58 57 57 56 59 61 60 59 56 57 56 55 50 55 62 64 65 65 64 64 65 66 66 66 65 64 64 65
54 53 53 52 52 50 49 49 50 48 47 48 47 47 47 46 46 46 47 47 47 47 48 48 48 48 48 49 49 49 49 49 50 50 50 50 51 51 51 52 53 55 55 54 55 56 57 57 57 57 56 58 61 59 57 54 53 55 53 49 56 62 64 65 64 65 65 65 65 65 64 63 61 61
53 53 53 52 50 49 48 49 47 47 46 46 46 46 45 46 45 46 46 46 46 47 47 48 48 48 49 49 49 49 49 49 49 50 50 50 50 52 51 52 52 53 55 55 54 54 56 56 58 57 57 57 58 58 58 57 57 58 57 54 49 53 54 59 63 64 64 65 64 63 62 62 62 62
51 50 50 50 49 48 47 46 45 46 45 45 46 47 45 44 44 45 45 46 47 46 46 47 47 48 49 49 50 49 48 48 49 50 50 50 50 51 52 52 51 52 53 54 55 55 55 57 61 60 62 60 60 59 57 54 53 54 55 56 52 51 52 53 55 56 57 61 63 63 62 62 61 62
48 47 48 49 49 49 47 47 46 45 45 44 44 44 44 44 44 47 46 46 44 45 45 46 46 47 48 49 50 50 49 48 48 48 49 49 49 50 51 51 50 51 51 52 54 56 58 59 61 60 60 59 58 55 53 54 53 54 55 57 58 55 54 53 53 54 54 54 57 61 61 60 61 61
48 46 46 49 50 49 47 47 45 45 43 43 43 43 42 42 41 42 42 42 42 43 44 45 45 46 47 48 50 50 50 49 49 48 49 49 49 48 49 49 50 50 51 52 54 57 58 58 59 58 58 58 57 57 54 55 55 55 55 56 57 58 59 57 56 54 54 55 54 53 54 58 60 59
47 47 46 47 49 49 48 47 45 44 44 43 42 41 41 39 39 40 40 40 41 41 43 43 44 45 46 47 49 49 50 50 50 49 49 50 49 49 49 49 50 50 51 51 53 55 57 57 58 58 57 56 57 56 55 56 55 56 55 56 57 57 56 58 59 57 57 56 54 55 56 54 53 55
46 46 46 46 48 49 48 46 44 42 42 41 40 40 40 38 39 38 38 40 40 41 42 42 43 44 45 47 48 48 49 49 49 50 50 51 50 50 49 49 49 49 49 50 52 53 55 56 56 58 57 58 57 57 58 57 56 56 56 56 56 56 56 56 55 55 55 55 54 54 55 55 55 55
MSLP
1016.93 1016.97 1016.93 1016.97 1016.90 1016.73 1016.61 1016.61 1016.61 1016.66 1016.82 1016.97 1017.14 1017.34 1017.66 1017.82 1018.22 1018.34 1017.93 1017.17 1016.82 1015.90 1015.61 1015.61 1014.46 1014.26 1014.14 1014.02 1013.70 1013.46 1013.09 1012.66 1012.38 1012.05 1011.73 1011.46 1011.14 1010.90 1010.82 1010.78 1010.78 1010.82 1010.85 1010.90 1010.93 1010.97 1011.09 1011.17 1011.26 1011.34 1011.41 1011.58 1011.73 1011.90 1012.09 1012.26 1012.38 1012.53 1012.70 1012.85 1013.02 1013.22 1013.38 1013.58 1013.70 1013.82 1013.97 1014.14 1014.26 1014.41 1014.58 1014.78 1014.90 1015.02
1016.70 1016.70 1016.66 1016.66 1016.70 1016.46 1016.46 1016.49 1016.46 1016.53 1016.61 1016.73 1016.90 1017.05 1017.22 1017.38 1017.90 1018.05 1018.22 1017.61 1016.78 1016.22 1015.61 1015.49 1015.09 1014.26 1014.17 1013.85 1013.53 1013.34 1012.93 1012.46 1012.17 1011.85 1011.49 1011.17 1010.85 1010.61 1010.49 1010.38 1010.34 1010.38 1010.38 1010.41 1010.46 1010.49 1010.53 1010.66 1010.78 1010.85 1010.97 1011.09 1011.26 1011.41 1011.61 1011.78 1011.97 1012.14 1012.26 1012.41 1012.58 1012.73 1012.93 1013.14 1013.29 1013.41 1013.53 1013.70 1013.85 1014.02 1014.17 1014.34 1014.49 1014.66
1016.46 1016.53 1016.58 1016.49 1016.49 1016.34 1016.34 1016.29 1016.38 1016.38 1016.46 1016.58 1016.66 1016.78 1016.90 1017.05 1017.29 1017.58 1017.78 1017.97 1016.61 1016.02 1016.05 1015.38 1014.93 1014.70 1014.09 1013.73 1013.41 1012.97 1012.66 1012.26 1011.90 1011.58 1011.17 1010.82 1010.53 1010.34 1010.14 1010.02 1009.93 1009.93 1009.93 1009.93 1010.02 1010.09 1010.14 1010.17 1010.26 1010.38 1010.49 1010.66 1010.82 1010.93 1011.09 1011.29 1011.49 1011.66 1011.82 1011.97 1012.09 1012.26 1012.46 1012.66 1012.85 1013.02 1013.14 1013.29 1013.41 1013.61 1013.78 1013.93 1014.09 1014.26
1016.41 1016.41 1016.46 1016.38 1016.38 1016.17 1016.17 1016.26 1016.29 1016.29 1016.26 1016.29 1016.49 1016.61 1016.70 1016.82 1016.90 1017.09 1017.41 1017.53 1017.05 1016.09 1015.97 1015.49 1014.82 1014.49 1014.17 1013.61 1013.34 1012.78 1012.34 1011.93 1011.70 1011.34 1010.90 1010.49 1010.26 1010.02 1009.82 1009.58 1009.46 1009.46 1009.41 1009.46 1009.53 1009.61 1009.78 1009.85 1009.85 1009.90 1010.02 1010.17 1010.29 1010.46 1010.61 1010.78 1010.97 1011.17 1011.38 1011.53 1011.66 1011.82 1011.97 1012.17 1012.38 1012.53 1012.70 1012.85 1013.02 1013.17 1013.38 1013.53 1013.73 1013.90
1016.26 1016.26 1016.29 1016.17 1016.09 1015.97 1016.05 1016.09 1016.14 1016.17 1016.14 1016.17 1016.22 1016.34 1016.49 1016.61 1016.66 1016.90 1017.09 1017.14 1016.66 1015.93 1015.41 1015.26 1014.82 1014.17 1013.97 1013.66 1013.09 1012.73 1012.22 1011.78 1011.38 1011.05 1010.70 1010.26 1009.97 1009.70 1009.46 1009.22 1009.02 1008.93 1008.93 1008.97 1009.05 1009.17 1009.29 1009.38 1009.46 1009.46 1009.53 1009.66 1009.78 1009.93 1010.09 1010.26 1010.46 1010.70 1010.90 1011.05 1011.22 1011.34 1011.49 1011.70 1011.90 1012.05 1012.26 1012.41 1012.58 1012.73 1012.93 1013.09 1013.34 1013.53
1016.14 1016.09 1016.17 1016.05 1015.93 1015.78 1015.82 1015.82 1015.93 1015.90 1015.93 1015.97 1016.05 1016.14 1016.26 1016.38 1016.38 1016.46 1016.73 1016.70 1016.53 1016.05 1015.26 1014.85 1014.38 1014.09 1013.73 1013.61 1012.85 1012.73 1012.22 1011.61 1011.22 1010.82 1010.46 1010.02 1009.66 1009.41 1009.09 1008.93 1008.66 1008.49 1008.46 1008.49 1008.58 1008.66 1008.73 1008.85 1008.93 1009.05 1009.14 1009.22 1009.34 1009.46 1009.58 1009.73 1009.93 1010.17 1010.41 1010.58 1010.73 1010.90 1011.05 1011.22 1011.41 1011.61 1011.78 1011.97 1012.14 1012.29 1012.49 1012.70 1012.90 1013.14
1015.93 1016.05 1016.05 1015.93 1015.73 1015.61 1015.66 1015.66 1015.61 1015.61 1015.61 1015.61 1015.70 1015.70 1015.85 1016.02 1016.02 1016.05 1016.17 1016.38 1016.29 1015.93 1015.38 1014.78 1014.34 1013.93 1013.53 1013.41 1012.73 1012.34 1011.93 1011.53 1011.09 1010.70 1010.17 1009.85 1009.34 1008.97 1008.73 1008.53 1008.26 1008.05 1008.02 1007.97 1008.02 1008.05 1008.14 1008.29 1008.46 1008.61 1008.70 1008.78 1008.85 1008.97 1009.09 1009.26 1009.46 1009.70 1009.90 1010.09 1010.26 1010.41 1010.58 1010.78 1010.97 1011.14 1011.34 1011.49 1011.70 1011.85 1012.05 1012.29 1012.49 1012.73
1015.85 1015.85 1015.85 1015.73 1015.58 1015.49 1015.61 1015.49 1015.49 1015.46 1015.41 1015.46 1015.46 1015.49 1015.58 1015.70 1015.70 1015.70 1015.78 1015.85 1015.93 1015.66 1015.41 1014.58 1014.29 1013.66 1013.53 1012.90 1012.41 1012.14 1011.66 1011.34 1010.90 1010.49 1009.85 1009.41 1009.14 1008.78 1008.41 1008.17 1007.97 1007.70 1007.66 1007.58 1007.58 1007.58 1007.61 1007.73 1007.93 1008.09 1008.26 1008.34 1008.34 1008.41 1008.53 1008.70 1008.90 1009.17 1009.41 1009.61 1009.73 1009.90 1010.09 1010.29 1010.53 1010.70 1010.90 1011.05 1011.22 1011.41 1011.61 1011.85 1012.05 1012.29
1015.61 1015.66 1015.66 1015.49 1015.41 1015.41 1015.49 1015.41 1015.41 1015.29 1015.34 1015.26 1015.34 1015.38 1015.34 1015.41 1015.34 1015.38 1015.41 1015.46 1015.49 1015.41 1015.17 1014.58 1013.93 1013.53 1013.29 1012.82 1012.29 1011.90 1011.70 1010.97 1010.66 1010.14 1009.78 1009.34 1008.97 1008.58 1008.14 1007.85 1007.46 1007.29 1007.22 1007.22 1007.22 1007.22 1007.22 1007.26 1007.38 1007.49 1007.61 1007.73 1007.78 1007.85 1008.02 1008.22 1008.41 1008.66 1008.90 1009.09 1009.26 1009.41 1009.58 1009.82 1010.05 1010.26 1010.46 1010.61 1010.82 1011.02 1011.22 1011.41 1011.66 1011.85
1015.38 1015.38 1015.34 1015.22 1015.17 1015.26 1015.29 1015.14 1014.97 1014.97 1014.97 1015.02 1015.14 1015.14 1015.09 1015.05 1015.09 1015.14 1015.14 1015.14 1015.09 1014.97 1014.78 1014.53 1014.02 1013.49 1013.26 1012.66 1012.22 1011.66 1011.46 1011.17 1010.58 1009.97 1009.46 1009.09 1008.73 1008.53 1008.17 1007.73 1007.34 1007.02 1006.90 1006.90 1006.82 1006.85 1006.85 1006.85 1006.90 1006.97 1007.05 1007.14 1007.22 1007.34 1007.46 1007.66 1007.90 1008.14 1008.38 1008.58 1008.78 1008.93 1009.09 1009.29 1009.53 1009.78 1009.97 1010.17 1010.38 1010.58 1010.78 1011.02 1011.26 1011.46
1015.17 1015.14 1015.05 1014.97 1014.90 1014.93 1014.82 1014.73 1014.70 1014.70 1014.78 1014.82 1014.73 1014.73 1014.73 1014.73 1014.85 1014.85 1014.85 1014.82 1014.73 1014.61 1014.49 1014.26 1014.02 1013.61 1012.93 1012.70 1012.17 1011.38 1011.14 1010.85 1010.61 1010.26 1009.61 1009.05 1008.53 1008.34 1008.17 1007.78 1007.17 1006.85 1006.66 1006.34 1006.26 1006.26 1006.26 1006.29 1006.38 1006.41 1006.58 1006.66 1006.73 1006.82 1006.93 1007.09 1007.34 1007.61 1007.90 1008.14 1008.29 1008.46 1008.61 1008.82 1009.05 1009.26 1009.49 1009.73 1009.93 1010.14 1010.38 1010.58 1010.82 1011.02
1014.97 1014.82 1014.73 1014.66 1014.58 1014.49 1014.41 1014.41 1014.38 1014.41 1014.49 1014.49 1014.49 1014.41 1014.46 1014.49 1014.61 1014.61 1014.58 1014.53 1014.41 1014.38 1014.29 1014.17 1013.85 1013.46 1013.02 1012.34 1011.93 1011.38 1010.97 1010.78 1010.26 1009.93 1009.78 1009.41 1008.70 1008.26 1007.82 1007.53 1007.34 1006.78 1006.61 1006.41 1006.09 1005.90 1005.90 1005.90 1005.90 1005.93 1006.05 1006.22 1006.34 1006.46 1006.58 1006.70 1006.90 1007.09 1007.34 1007.58 1007.78 1007.97 1008.17 1008.38 1008.61 1008.82 1009.02 1009.26 1009.46 1009.70 1009.93 1010.17 1010.38 1010.58
1014.78 1014.66 1014.53 1014.41 1014.29 1014.17 1014.05 1013.97 1013.97 1013.97 1014.02 1014.17 1014.29 1014.17 1014.22 1014.26 1014.34 1014.34 1014.34 1014.26 1014.14 1014.09 1014.05 1013.78 1013.53 1013.34 1012.90 1012.38 1011.93 1011.41 1011.05 1010.85 1010.49 1009.73 1009.53 1009.17 1008.61 1008.14 1007.73 1007.14 1006.82 1006.61 1006.58 1006.22 1006.02 1005.78 1005.61 1005.73 1005.73 1005.78 1005.90 1005.78 1005.85 1006.02 1006.22 1006.34 1006.46 1006.61 1006.85 1007.09 1007.29 1007.49 1007.66 1007.90 1008.14 1008.34 1008.53 1008.78 1008.97 1009.22 1009.46 1009.70 1009.93 1010.14
1014.58 1014.49 1014.38 1014.17 1013.97 1013.90 1013.82 1013.73 1013.70 1013.70 1013.70 1013.78 1013.82 1013.78 1013.85 1013.97 1014.05 1014.09 1014.09 1013.93 1013.82 1013.90 1013.82 1013.53 1013.38 1013.26 1012.82 1012.17 1011.73 1011.38 1010.78 1010.34 1009.90 1009.61 1009.29 1009.14 1008.41 1008.09 1007.70 1007.05 1006.53 1006.17 1006.26 1006.22 1006.05 1005.53 1005.22 1005.38 1005.38 1005.41 1005.58 1005.29 1005.41 1005.53 1005.73 1005.85 1005.85 1006.02 1006.29 1006.58 1006.82 1006.97 1007.17 1007.41 1007.61 1007.85 1008.05 1008.26 1008.49 1008.73 1009.02 1009.22 1009.46 1009.73
1014.34 1014.26 1014.17 1014.09 1013.93 1013.78 1013.70 1013.58 1013.46 1013.41 1013.38 1013.38 1013.46 1013.49 1013.46 1013.49 1013.58 1013.70 1013.73 1013.58 1013.53 1013.58 1013.53 1013.26 1013.17 1012.97 1012.58 1011.85 1011.29 1010.97 1010.46 1009.97 1009.78 1009.49 1009.14 1008.82 1008.49 1008.29 1008.09 1007.58 1006.29 1005.66 1005.78 1005.90 1005.85 1005.34 1004.82 1004.97 1005.26 1005.05 1005.02 1004.85 1004.93 1004.97 1005.02 1005.02 1005.26 1005.49 1005.66 1005.90 1006.14 1006.38 1006.61 1006.85 1007.09 1007.34 1007.58 1007.82 1008.02 1008.29 1008.53 1008.78 1009.05 1009.29
1014.26 1014.22 1014.09 1013.93 1013.82 1013.66 1013.53 1013.41 1013.29 1013.17 1013.05 1013.05 1013.09 1013.14 1013.17 1013.17 1013.17 1013.17 1013.22 1013.26 1013.26 1013.22 1013.26 1013.14 1012.82 1012.58 1012.17 1011.53 1011.02 1010.49 1010.09 1009.73 1009.38 1009.09 1008.90 1008.66 1008.41 1008.09 1007.85 1007.41 1007.09 1005.78 1005.41 1005.66 1005.66 1005.14 1004.46 1004.49 1004.70 1004.78 1004.46 1004.34 1004.34 1004.29 1004.34 1004.49 1004.73 1004.90 1005.09 1005.34 1005.58 1005.82 1006.05 1006.29 1006.53 1006.78 1007.02 1007.29 1007.53 1007.78 1008.05 1008.29 1008.58 1008.90
1014.05 1014.05 1014.02 1013.90 1013.70 1013.49 1013.29 1013.22 1013.09 1013.05 1012.93 1012.85 1012.85 1012.90 1012.90 1012.93 1012.90 1012.90 1012.85 1012.85 1012.82 1012.78 1012.90 1012.82 1012.46 1012.05 1011.61 1011.29 1010.61 1010.09 1009.85 1009.53 1009.41 1008.82 1008.53 1008.22 1007.93 1007.61 1007.34 1006.82 1006.49 1005.78 1005.41 1005.46 1005.29 1005.05 1004.29 1004.29 1004.46 1004.46 1003.85 1003.82 1003.78 1003.78 1003.82 1003.97 1004.17 1004.34 1004.58 1004.78 1005.02 1005.26 1005.49 1005.73 1005.97 1006.22 1006.46 1006.73 1007.02 1007.29 1007.58 1007.82 1008.14 1008.41
1013.82 1013.78 1013.82 1013.78 1013.61 1013.34 1013.22 1013.05 1012.97 1012.93 1012.85 1012.78 1012.73 1012.78 1012.78 1012.70 1012.58 1012.53 1012.46 1012.38 1012.38 1012.41 1012.41 1012.34 1012.05 1011.26 1011.09 1010.90 1010.29 1009.73 1009.53 1009.49 1009.14 1008.73 1008.17 1007.82 1007.53 1007.17 1006.73 1006.14 1005.82 1005.26 1005.26 1005.41 1004.97 1004.70 1004.05 1003.90 1004.09 1004.05 1003.49 1003.34 1003.38 1003.26 1003.22 1003.41 1003.61 1003.82 1004.02 1004.22 1004.46 1004.73 1004.97 1005.22 1005.46 1005.70 1005.93 1006.22 1006.49 1006.78 1007.09 1007.38 1007.66 1007.97
1013.49 1013.46 1013.46 1013.46 1013.34 1013.14 1013.02 1012.82 1012.73 1012.70 1012.58 1012.58 1012.66 1012.70 1012.66 1012.53 1012.41 1012.26 1012.05 1011.90 1011.85 1011.90 1011.85 1011.70 1011.41 1010.97 1010.61 1010.34 1009.93 1009.49 1009.17 1009.02 1008.66 1008.34 1007.93 1007.46 1007.09 1006.61 1006.02 1005.53 1005.09 1004.97 1004.73 1004.97 1004.93 1004.53 1003.66 1003.41 1003.78 1003.41 1003.17 1003.05 1003.02 1002.78 1002.82 1002.93 1003.14 1003.29 1003.49 1003.73 1003.97 1004.17 1004.46 1004.73 1004.97 1005.22 1005.46 1005.70 1005.97 1006.29 1006.61 1006.97 1007.29 1007.66
1013.22 1013.17 1013.17 1013.14 1013.02 1012.90 1012.78 1012.53 1012.46 1012.38 1012.38 1012.46 1012.53 1012.53 1012.46 1012.34 1012.14 1011.93 1011.53 1011.46 1011.41 1011.38 1011.26 1011.05 1010.85 1010.53 1010.17 1009.85 1009.58 1009.17 1008.82 1008.49 1008.09 1007.66 1007.26 1006.90 1006.61 1006.29 1005.82 1005.22 1004.58 1004.49 1003.93 1004.17 1004.49 1004.22 1003.58 1003.09 1003.41 1002.97 1002.66 1002.70 1002.85 1002.58 1002.49 1002.46 1002.61 1002.82 1003.02 1003.26 1003.41 1003.66 1003.93 1004.26 1004.53 1004.78 1004.97 1005.22 1005.49 1005.82 1006.17 1006.58 1006.93 1007.34
1013.02 1012.97 1012.85 1012.82 1012.73 1012.61 1012.49 1012.29 1012.22 1012.22 1012.29 1012.41 1012.41 1012.38 1012.26 1012.09 1012.02 1011.66 1011.29 1011.17 1011.09 1010.93 1010.82 1010.66 1010.38 1010.05 1009.78 1009.41 1009.05 1008.66 1008.26 1007.97 1007.61 1007.41 1007.14 1006.61 1006.14 1005.82 1005.34 1004.61 1004.29 1003.66 1003.61 1003.53 1003.61 1003.70 1003.46 1002.82 1002.90 1002.73 1002.49 1002.49 1002.53 1002.41 1002.26 1002.09 1002.17 1002.34 1002.53 1002.73 1002.93 1003.22 1003.49 1003.82 1004.09 1004.29 1004.49 1004.73 1005.02 1005.34 1005.73 1006.09 1006.53 1006.93
1012.90 1012.73 1012.58 1012.46 1012.41 1012.38 1012.22 1012.09 1012.22 1012.29 1012.38 1012.34 1012.26 1012.17 1012.09 1011.97 1011.85 1011.53 1011.22 1011.02 1010.78 1010.58 1010.38 1010.05 1009.73 1009.41 1009.05 1008.78 1008.49 1008.14 1007.73 1007.34 1007.09 1007.05 1006.70 1005.90 1005.58 1005.09 1004.78 1004.26 1003.61 1003.09 1002.97 1002.66 1002.70 1003.34 1002.61 1002.34 1002.29 1002.53 1002.22 1002.26 1002.05 1001.93 1001.82 1001.78 1001.78 1001.97 1002.22 1002.34 1002.53 1002.82 1003.05 1003.38 1003.61 1003.85 1004.05 1004.26 1004.58 1004.93 1005.29 1005.66 1006.17 1006.73
1012.82 1012.66 1012.49 1012.34 1012.17 1012.14 1012.05 1012.17 1012.29 1012.38 1012.38 1012.17 1012.05 1012.05 1012.14 1012.05 1011.82 1011.49 1011.22 1011.09 1010.82 1010.46 1010.14 1009.61 1009.34 1009.02 1008.66 1008.41 1008.09 1007.61 1007.17 1006.78 1006.46 1006.17 1005.78 1005.26 1004.97 1004.46 1004.02 1003.58 1003.17 1002.97 1002.05 1001.53 1001.78 1002.61 1002.05 1002.26 1001.73 1002.05 1002.53 1002.61 1001.82 1001.46 1001.46 1001.53 1001.53 1001.61 1001.82 1002.05 1002.34 1002.46 1002.70 1002.90 1003.09 1003.34 1003.53 1003.82 1004.14 1004.49 1004.93 1005.41 1005.97 1006.34
1012.61 1012.66 1012.49 1012.26 1012.05 1011.93 1012.02 1012.14 1012.26 1012.29 1012.22 1011.97 1012.02 1012.14 1012.09 1011.90 1011.66 1011.22 1011.17 1010.97 1010.82 1010.41 1010.14 1009.78 1009.41 1009.02 1008.49 1008.09 1007.70 1007.26 1006.73 1006.17 1005.73 1005.41 1005.02 1004.53 1004.17 1003.82 1003.34 1002.85 1002.46 1001.97 1001.22 1000.73 1000.78 1001.49 1001.17 1001.22 1001.46 1001.17 1001.49 1002.29 1002.49 1001.49 1001.26 1001.34 1001.22 1001.22 1001.34 1001.70 1001.97 1002.02 1002.29 1002.58 1002.85 1002.97 1003.22 1003.49 1003.82 1004.17 1004.58 1005.05 1005.53 1005.90
1012.61 1012.49 1012.41 1012.22 1011.97 1011.82 1011.82 1011.93 1012.05 1012.02 1011.85 1011.97 1012.05 1011.97 1011.85 1011.61 1011.34 1011.29 1011.22 1010.78 1010.49 1010.22 1009.90 1009.58 1009.17 1008.73 1008.29 1007.93 1007.58 1007.02 1006.41 1005.82 1005.22 1004.70 1004.26 1003.73 1003.22 1002.93 1002.49 1002.05 1001.53 1001.02 1000.46 1000.14 1000.09 1000.58 1000.90 1000.70 1000.97 1001.05 1001.26 1001.38 1001.29 1001.41 1001.22 1001.05 1000.90 1000.97 1000.97 1001.14 1001.46 1001.53 1001.90 1002.22 1002.46 1002.78 1003.05 1003.38 1003.61 1003.90 1004.26 1004.66 1005.02 1005.26
1012.53 1012.38 1012.26 1012.05 1011.73 1011.58 1011.61 1011.90 1011.85 1011.73 1011.70 1011.82 1011.85 1011.61 1011.46 1011.38 1011.26 1011.17 1010.93 1010.70 1010.46 1010.26 1009.93 1009.49 1009.09 1008.66 1008.29 1007.90 1007.38 1006.70 1006.02 1005.38 1004.73 1004.14 1003.49 1002.85 1002.22 1001.66 1001.29 1000.97 1000.66 1000.34 999.82 999.41 999.61 999.73 1000.17 1000.41 1000.26 1000.73 1000.93 1001.26 1001.22 1001.05 1001.34 1001.29 1000.90 1000.78 1000.78 1000.85 1000.93 1001.14 1001.41 1001.82 1002.22 1002.46 1002.73 1003.02 1003.34 1003.61 1003.90 1004.26 1004.58 1004.82
1012.17 1012.17 1012.09 1011.78 1011.49 1011.41 1011.58 1011.70 1011.66 1011.58 1011.61 1011.70 1011.41 1011.26 1011.29 1011.17 1011.02 1010.90 1010.78 1010.66 1010.49 1010.26 1009.85 1009.49 1009.17 1008.70 1008.34 1007.90 1007.29 1006.58 1005.78 1004.90 1004.17 1003.49 1002.78 1001.93 1001.17 1000.46 999.85 999.46 999.29 999.09 998.82 998.90 998.90 999.14 999.41 999.70 999.58 1000.02 1000.46 1000.41 1000.82 1001.02 1001.05 1001.26 1001.14 1000.70 1000.85 1000.90 1000.97 1001.09 1001.26 1001.49 1001.85 1002.05 1002.38 1002.70 1002.93 1003.29 1003.70 1004.05 1004.34 1004.61
1012.09 1012.05 1011.85 1011.58 1011.38 1011.41 1011.46 1011.34 1011.34 1011.26 1011.34 1011.14 1011.05 1011.17 1011.05 1010.93 1010.78 1010.73 1010.78 1010.70 1010.53 1010.22 1009.82 1009.46 1009.09 1008.73 1008.26 1007.82 1007.26 1006.53 1005.78 1004.90 1003.93 1003.05 1002.17 1001.22 1000.34 999.41 998.66 998.34 998.22 998.26 998.34 998.34 998.29 998.46 998.73 999.14 999.22 999.14 999.29 999.85 1000.41 1000.82 1000.97 1000.58 1000.49 1000.61 1000.78 1000.78 1000.85 1001.02 1001.17 1001.29 1001.53 1001.82 1002.17 1002.53 1002.93 1003.38 1003.82 1004.22 1004.49 1004.73
1011.85 1011.82 1011.73 1011.58 1011.41 1011.29 1011.14 1011.02 1011.02 1011.02 1011.05 1011.02 1010.97 1010.93 1010.90 1010.73 1010.66 1010.66 1010.73 1010.66 1010.46 1010.22 1009.82 1009.46 1009.05 1008.70 1008.22 1007.78 1007.17 1006.41 1005.66 1004.78 1003.78 1002.78 1001.70 1000.61 999.58 998.53 997.58 997.34 997.41 997.61 997.78 997.73 997.78 997.85 998.14 998.41 998.70 998.73 998.97 999.22 999.70 999.82 1000.02 1000.26 1000.29 1000.49 1000.49 1000.82 1001.17 1000.97 1001.05 1001.17 1001.38 1001.61 1002.02 1002.38 1002.66 1003.05 1003.14 1003.34 1003.85 1004.09
1011.70 1011.70 1011.61 1011.41 1011.17 1011.02 1010.93 1010.90 1010.82 1010.82 1010.82 1010.85 1010.85 1010.73 1010.70 1010.66 1010.66 1010.61 1010.66 1010.66 1010.53 1010.34 1009.90 1009.49 1009.17 1008.78 1008.26 1007.61 1006.93 1006.26 1005.46 1004.78 1003.90 1002.97 1001.97 1000.85 999.58 998.58 997.53 997.02 997.17 997.26 997.29 997.26 997.26 997.46 997.66 997.97 998.34 998.61 998.90 999.09 999.09 999.46 999.53 999.82 1000.26 1000.14 1000.22 1000.41 1000.58 1000.82 1000.97 1001.05 1001.26 1001.41 1001.82 1002.17 1002.41 1002.73 1002.82 1002.93 1003.05 1003.53
1011.66 1011.58 1011.46 1011.17 1010.85 1010.85 1010.90 1010.78 1010.70 1010.70 1010.73 1010.78 1010.78 1010.73 1010.73 1010.73 1010.73 1010.61 1010.66 1010.70 1010.66 1010.46 1010.09 1009.66 1009.26 1008.73 1008.17 1007.53 1006.85 1006.17 1005.53 1004.82 1003.93 1003.17 1002.41 1001.38 1000.41 999.29 998.14 997.05 997.05 997.14 997.09 996.93 997.02 997.14 997.41 997.70 997.97 998.53 999.09 999.22 999.38 999.26 999.14 999.26 999.66 1000.02 1000.05 1000.05 1000.29 1000.78 1000.61 1000.78 1000.97 1001.17 1001.34 1001.66 1002.05 1002.49 1002.85 1003.02 1003.26 1003.41
1011.85 1011.73 1011.22 1010.70 1010.58 1010.78 1010.82 1010.82 1010.85 1010.93 1010.97 1011.02 1011.09 1011.02 1010.97 1010.93 1010.90 1010.73 1010.61 1010.58 1010.58 1010.46 1010.14 1009.73 1009.26 1008.73 1008.26 1007.70 1007.05 1006.38 1005.73 1005.05 1004.34 1003.49 1002.78 1001.97 1001.05 1000.17 999.38 998.38 998.09 997.46 997.02 996.97 997.02 997.02 997.09 997.46 997.85 998.34 998.61 998.85 999.26 999.09 999.02 999.14 999.34 999.58 999.85 999.93 999.97 1000.05 1000.22 1000.49 1000.66 1000.85 1000.97 1001.38 1001.90 1002.29 1002.49 1002.66 1002.90 1003.14
1011.93 1011.53 1010.82 1010.73 1010.78 1010.82 1010.93 1011.05 1011.17 1011.29 1011.29 1011.34 1011.34 1011.29 1011.17 1011.14 1011.05 1010.93 1010.82 1010.82 1010.66 1010.41 1010.05 1009.78 1009.46 1009.05 1008.53 1007.90 1007.26 1006.66 1006.02 1005.29 1004.70 1003.93 1003.29 1002.38 1001.61 1000.78 999.97 999.29 998.90 998.61 998.29 997.61 997.22 997.14 997.14 997.26 997.38 997.66 997.90 998.05 998.14 998.26 998.78 999.38 999.29 999.29 999.58 999.82 999.97 1000.14 1000.09 1000.17 1000.34 1000.58 1000.90 1001.34 1001.66 1001.85 1002.22 1002.38 1002.49 1002.70
1012.29 1011.34 1011.09 1011.09 1011.14 1011.22 1011.26 1011.41 1011.61 1011.66 1011.61 1011.61 1011.58 1011.49 1011.34 1011.26 1011.17 1011.05 1010.97 1010.85 1010.73 1010.41 1010.14 1009.90 1009.61 1009.26 1008.73 1008.22 1007.61 1007.05 1006.41 1005.66 1004.93 1004.34 1003.90 1003.02 1002.02 1001.09 1000.38 999.93 999.53 999.17 998.73 998.49 998.17 997.61 997.17 997.22 997.41 997.66 997.78 998.05 998.41 998.66 998.46 998.58 998.97 999.17 999.29 999.46 999.78 999.93 999.90 999.93 1000.09 1000.26 1000.58 1000.82 1001.26 1001.82 1002.02 1002.17 1002.09 1002.17
1011.82 1011.41 1011.46 1011.58 1011.53 1011.58 1011.61 1011.73 1011.85 1011.82 1011.78 1011.73 1011.70 1011.61 1011.46 1011.41 1011.29 1011.22 1011.09 1010.93 1010.73 1010.46 1010.22 1009.93 1009.70 1009.34 1008.93 1008.49 1007.97 1007.49 1006.78 1006.14 1005.41 1004.66 1003.97 1003.34 1002.53 1001.73 1000.85 1000.29 1000.09 999.70 999.46 999.09 998.53 998.22 997.66 997.17 997.46 997.90 998.26 998.46 998.61 998.90 998.93 999.17 999.02 999.09 999.26 999.38 999.41 999.58 999.78 999.73 999.90 1000.14 1000.38 1000.73 1000.97 1001.49 1001.78 1001.90 1001.93 1001.82
1011.73 1011.82 1011.73 1011.73 1011.82 1011.82 1011.90 1011.93 1011.97 1011.93 1011.97 1011.85 1011.82 1011.73 1011.66 1011.58 1011.46 1011.38 1011.26 1011.05 1010.82 1010.58 1010.34 1010.14 1009.82 1009.46 1009.02 1008.61 1008.14 1007.66 1007.05 1006.38 1005.73 1005.05 1004.38 1003.70 1003.02 1002.22 1001.38 1000.78 1000.53 1000.29 999.90 999.46 999.09 998.58 998.17 997.58 997.26 997.78 998.17 998.49 998.78 999.22 999.41 999.78 999.46 999.29 999.26 999.46 999.34 999.49 999.53 999.66 999.73 999.93 1000.26 1000.58 1000.70 1000.97 1001.41 1001.58 1001.53 1001.49
1011.85 1011.82 1011.93 1011.93 1011.93 1011.93 1011.97 1012.02 1012.02 1012.05 1012.05 1011.97 1011.93 1011.85 1011.82 1011.78 1011.70 1011.58 1011.38 1011.14 1010.90 1010.66 1010.46 1010.29 1010.05 1009.61 1009.17 1008.66 1008.17 1007.73 1007.26 1006.66 1006.17 1005.53 1004.93 1004.26 1003.58 1002.90 1002.17 1001.29 1000.73 1000.49 1000.17 1000.05 999.70 999.22 998.58 998.34 997.93 997.70 997.85 998.26 998.61 999.05 999.29 999.49 999.78 999.93 999.85 999.26 999.29 999.26 999.46 999.61 999.82 1000.02 1000.02 1000.14 1000.46 1000.58 1000.70 1000.90 1001.05 1001.02
1011.82 1011.97 1012.02 1011.97 1011.97 1011.97 1011.93 1011.97 1012.02 1012.09 1012.09 1012.05 1012.05 1011.97 1011.90 1011.85 1011.82 1011.70 1011.49 1011.26 1011.02 1010.78 1010.49 1010.34 1010.05 1009.66 1009.26 1008.78 1008.29 1007.82 1007.41 1006.93 1006.41 1005.82 1005.26 1004.78 1004.22 1003.61 1003.05 1002.26 1001.61 1000.93 1000.61 1000.34 999.97 999.61 999.22 998.66 998.38 998.58 998.14 997.78 998.17 998.58 999.38 999.70 999.97 1000.22 1000.17 999.58 999.26 999.17 999.17 999.49 999.73 999.85 999.93 999.90 1000.05 1000.14 1000.38 1000.66 1000.53 1000.46
1011.85 1011.97 1012.05 1012.05 1012.05 1012.09 1012.14 1012.14 1012.14 1012.17 1012.22 1012.22 1012.17 1012.17 1012.05 1011.97 1011.93 1011.78 1011.58 1011.38 1011.14 1010.90 1010.61 1010.34 1010.02 1009.66 1009.29 1008.85 1008.46 1008.09 1007.73 1007.29 1006.73 1006.22 1005.70 1005.29 1004.90 1004.46 1003.82 1003.09 1002.46 1001.73 1001.05 1000.66 1000.09 999.70 999.26 998.78 998.70 998.61 998.70 998.05 997.41 998.02 998.78 999.93 1000.78 1000.78 1000.22 999.70 999.38 999.17 999.22 999.29 999.49 999.58 999.73 999.97 1000.02 1000.02 1000.17 1000.29 1000.29 1000.34
1011.93 1012.05 1012.17 1012.26 1012.34 1012.38 1012.38 1012.38 1012.38 1012.38 1012.41 1012.41 1012.34 1012.26 1012.22 1012.09 1012.05 1011.93 1011.73 1011.53 1011.29 1011.05 1010.78 1010.49 1010.14 1009.70 1009.26 1008.90 1008.53 1008.17 1007.82 1007.49 1007.22 1006.78 1006.26 1005.85 1005.38 1004.85 1004.46 1004.09 1003.46 1002.73 1001.73 1001.14 1000.85 1000.66 1000.05 999.58 999.17 999.05 998.85 998.78 998.38 998.09 998.73 999.41 1000.09 1000.05 999.85 1000.02 1000.02 999.85 999.93 999.49 999.38 999.46 999.61 999.61 999.85 1000.22 1000.46 1000.58 1000.78 1000.82
1012.17 1012.34 1012.46 1012.49 1012.53 1012.53 1012.58 1012.61 1012.70 1012.61 1012.66 1012.61 1012.49 1012.41 1012.38 1012.34 1012.26 1012.09 1011.90 1011.73 1011.58 1011.29 1011.02 1010.70 1010.34 1009.93 1009.46 1009.02 1008.61 1008.38 1008.05 1007.70 1007.34 1006.93 1006.46 1006.14 1005.70 1005.26 1004.78 1004.41 1003.97 1003.38 1002.73 1002.14 1001.82 1001.17 1000.73 1000.46 999.93 999.41 999.05 999.02 999.14 999.17 998.82 999.29 1000.29 1000.70 1000.53 1000.70 1000.49 1000.17 1000.05 1000.05 1000.09 999.93 999.90 999.78 999.85 1000.02 1000.34 1000.58 1000.78 1000.90
1012.34 1012.49 1012.58 1012.58 1012.66 1012.73 1012.78 1012.82 1012.85 1012.85 1012.85 1012.82 1012.78 1012.78 1012.70 1012.61 1012.53 1012.41 1012.22 1012.02 1011.85 1011.53 1011.29 1010.93 1010.61 1010.17 1009.78 1009.26 1008.85 1008.49 1008.22 1007.97 1007.66 1007.22 1006.85 1006.49 1006.14 1005.58 1005.09 1004.85 1004.61 1004.09 1003.53 1002.97 1002.46 1002.14 1001.70 1001.09 1000.49 1000.09 999.82 999.73 999.90 999.97 1000.02 1000.46 1000.85 1000.97 1000.93 1000.85 1000.73 1000.53 1000.38 1000.58 1000.73 1000.61 1000.49 1000.41 1000.22 1000.26 1000.34 1000.61 1000.73 1000.85
1012.41 1012.53 1012.61 1012.70 1012.73 1012.85 1012.93 1013.05 1013.09 1013.09 1013.14 1013.05 1013.05 1013.05 1013.02 1012.93 1012.85 1012.70 1012.58 1012.41 1012.17 1011.93 1011.61 1011.26 1010.85 1010.46 1010.05 1009.53 1009.09 1008.73 1008.46 1008.09 1007.78 1007.49 1007.14 1006.78 1006.49 1006.26 1005.82 1005.41 1005.09 1004.70 1004.26 1003.61 1002.97 1002.38 1002.05 1001.66 1001.26 1000.93 1000.70 1000.70 1001.05 1001.17 1001.34 1001.29 1001.29 1001.17 1001.09 1001.05 1001.05 1000.82 1000.61 1000.70 1000.93 1001.09 1000.90 1000.90 1001.05 1001.38 1001.38 1000.90 1000.49 1000.82
1012.49 1012.61 1012.73 1012.78 1012.85 1013.02 1013.17 1013.26 1013.34 1013.34 1013.34 1013.29 1013.29 1013.29 1013.29 1013.26 1013.14 1013.05 1012.93 1012.73 1012.49 1012.29 1011.90 1011.58 1011.17 1010.78 1010.34 1009.85 1009.34 1008.93 1008.61 1008.29 1008.02 1007.70 1007.34 1006.97 1006.73 1006.46 1006.14 1005.73 1005.34 1004.93 1004.41 1004.02 1003.38 1002.85 1002.49 1002.22 1002.05 1001.78 1001.66 1001.82 1002.02 1002.14 1002.26 1002.05 1001.93 1001.73 1001.49 1001.34 1001.34 1001.14 1001.09 1001.05 1001.09 1001.22 1000.97 1000.90 1001.17 1001.05 1001.05 1001.22 1001.09 1000.26
1012.61 1012.70 1012.78 1012.85 1012.97 1013.14 1013.34 1013.46 1013.53 1013.61 1013.61 1013.58 1013.53 1013.53 1013.61 1013.58 1013.41 1013.29 1013.14 1012.93 1012.73 1012.49 1012.14 1011.85 1011.46 1011.05 1010.66 1010.14 1009.66 1009.29 1008.90 1008.49 1008.17 1007.78 1007.46 1007.09 1006.78 1006.49 1006.22 1005.93 1005.66 1005.29 1004.85 1004.49 1003.97 1003.38 1003.02 1002.82 1002.73 1002.58 1002.38 1002.38 1002.29 1002.58 1002.53 1002.26 1002.22 1002.02 1001.78 1001.61 1001.70 1001.70 1001.66 1001.61 1001.58 1001.73 1001.93 1002.09 1002.09 1001.73 1001.49 1001.34 1001.49 1001.49
Wind_Speed
3 3 3 4 4 4 3 3 3 3 3 3 2 3 3 3 5 4 4 7 5 1 3 6 2 5 7 9 9 10 10 13 16 11 10 11 11 14 17 19 20 20 22 22 23 24 24 24 24 24 25 25 25 25 25 24 24 24 23 23 22 21 21 20 20 20 20 20 20 20 20 20 19 20
3 3 3 3 4 3 3 4 3 3 2 1 2 2 2 3 3 3 5 6 3 5 4 3 5 8 10 9 9 8 11 17 19 13 12 11 10 15 17 19 20 21 22 23 23 24 24 24 24 24 24 24 24 25 25 24 24 24 24 23 23 22 21 20 20 20 20 20 20 20 20 20 20 19
3 3 3 3 4 3 3 4 3 3 3 2 1 1 1 1 3 4 4 5 4 2 7 6 6 9 11 10 10 10 9 12 17 13 12 12 14 17 15 19 20 20 21 22 22 23 24 24 23 22 22 23 24 24 24 24 24 24 24 23 23 22 21 21 20 20 20 20 20 20 20 20 19 18
2 3 3 4 4 4 3 3 4 3 3 3 2 1 1 2 2 3 3 7 10 7 7 8 10 9 10 11 11 12 10 11 18 13 12 13 16 13 11 16 20 20 21 21 22 22 22 23 23 22 22 22 23 23 23 23 23 23 23 23 23 23 22 21 21 20 20 20 19 19 19 19 19 18
3 4 4 4 5 4 4 5 5 4 4 3 4 3 3 4 3 3 3 6 9 7 6 7 9 10 9 10 10 12 12 12 11 13 12 12 11 11 10 10 15 19 20 20 21 21 21 22 23 23 23 23 23 23 23 23 23 23 23 23 23 22 22 22 21 21 20 20 20 19 19 18 18 17
3 4 4 5 5 4 5 4 6 6 5 5 4 5 5 5 5 4 3 5 7 11 8 9 7 9 8 10 9 10 13 13 12 13 13 11 10 10 9 9 9 15 17 19 20 21 21 22 22 23 23 23 23 22 22 22 22 23 23 23 22 22 22 21 21 21 20 20 20 20 19 19 17 16
4 4 4 6 6 4 4 5 6 6 6 6 6 6 5 5 6 5 5 4 7 8 9 9 10 9 8 9 12 12 11 11 12 14 13 11 10 9 9 9 8 13 15 17 18 20 21 21 21 22 23 22 22 22 22 22 22 22 23 23 22 22 22 21 21 21 21 20 20 20 20 19 18 17
4 5 5 6 6 5 5 5 6 6 6 6 6 5 5 5 6 5 4 5 6 5 9 10 10 9 9 10 10 9 11 11 12 11 12 11 11 11 10 10 9 10 15 16 16 18 20 21 21 21 22 21 21 21 21 21 22 22 22 22 22 22 21 21 21 21 21 21 20 20 20 20 19 17
5 5 5 6 5 5 5 5 5 5 6 6 5 6 5 5 5 4 5 5 5 7 10 11 9 9 9 9 11 10 10 11 10 11 11 11 11 11 10 9 9 13 16 17 18 17 18 20 21 21 21 21 20 20 20 21 21 22 22 22 22 22 21 21 20 20 21 20 20 20 20 19 19 18
5 6 6 6 6 4 5 6 6 5 6 5 5 6 6 5 4 5 5 5 6 7 9 9 11 9 10 10 9 9 9 11 12 11 11 10 9 9 10 9 8 7 7 6 9 13 16 18 21 21 20 21 20 20 20 21 21 22 22 22 21 21 21 21 20 20 20 20 20 20 19 19 18 18
6 6 6 6 6 6 6 6 5 5 5 6 7 7 6 5 5 5 5 5 7 8 8 9 8 10 9 8 11 10 9 10 10 11 11 10 7 7 8 10 8 7 9 11 14 13 11 14 14 17 20 21 21 20 20 20 21 21 22 21 21 21 21 20 20 20 20 20 20 19 18 18 18 18
6 6 6 6 6 7 6 5 5 5 6 5 6 6 5 5 5 5 5 6 7 8 8 8 9 8 10 10 8 9 9 9 9 7 8 11 11 10 8 8 10 8 8 9 8 10 12 13 15 18 18 19 19 19 18 20 20 21 21 21 21 20 20 20 20 19 19 19 19 19 18 18 18 18
5 5 5 5 5 6 8 10 8 8 7 5 6 6 5 5 5 5 5 6 7 7 8 9 7 8 9 9 10 10 10 10 10 11 9 11 11 10 10 10 8 9 9 8 8 8 7 8 8 8 8 10 15 16 19 15 20 21 20 20 20 20 20 19 19 19 19 19 19 18 18 18 18 18
5 5 5 5 9 10 10 10 10 11 11 11 9 8 6 6 5 5 6 7 6 7 8 8 8 9 9 10 10 10 11 11 10 11 10 10 10 10 11 10 9 7 8 9 10 9 7 8 8 8 9 9 10 8 9 11 13 16 19 19 19 20 20 19 19 19 19 19 18 18 18 18 18 18
6 5 4 4 6 7 7 7 10 11 11 11 12 13 13 9 7 6 7 7 7 7 8 8 8 9 10 11 10 10 11 10 11 11 10 10 10 10 11 13 10 5 8 8 9 10 7 8 10 9 9 9 8 8 10 14 17 18 18 19 20 20 20 20 20 19 19 19 18 18 18 18 18 18
5 6 6 5 4 4 6 6 6 8 10 10 10 11 12 13 12 11 8 8 8 7 7 8 10 8 9 10 10 11 10 11 11 11 11 11 11 11 11 10 11 4 4 8 9 11 7 7 9 10 10 9 9 10 13 16 17 18 19 19 19 20 20 20 20 20 19 19 18 18 18 18 18 18
5 5 6 6 5 5 9 7 5 5 6 8 9 10 11 11 12 12 13 13 11 8 8 8 11 10 9 10 11 11 11 11 12 12 11 11 11 10 12 12 10 11 8 9 10 11 8 7 9 10 11 9 9 11 14 17 18 19 19 19 20 20 20 20 20 20 19 19 19 18 18 18 18 18
5 6 6 6 6 6 5 6 5 4 5 5 4 4 5 6 8 10 11 13 15 15 10 9 11 12 9 10 12 13 11 12 13 13 14 13 13 13 13 13 12 12 9 12 10 10 9 7 8 11 10 9 9 10 12 17 19 19 20 20 20 20 20 20 20 20 19 19 19 19 19 18 18 17
6 6 6 6 7 7 6 6 6 5 5 4 4 4 6 6 6 6 7 7 5 5 7 9 11 12 11 11 12 12 11 11 12 12 14 15 15 15 15 14 14 13 11 12 12 13 9 6 9 11 9 8 9 9 12 16 18 20 20 20 20 20 20 20 20 20 19 19 19 19 18 18 17 17
6 5 6 6 7 7 7 9 10 8 4 3 3 5 6 6 6 6 8 9 8 8 8 8 9 10 12 15 15 15 14 13 13 13 12 11 12 12 14 15 11 11 8 9 11 11 10 6 9 9 8 7 9 8 8 13 19 19 20 20 20 20 20 20 19 19 19 19 19 18 18 17 17 16
5 5 5 5 6 6 6 8 8 6 4 2 3 5 6 6 5 8 6 6 10 11 13 14 16 18 19 18 19 20 22 16 14 12 12 13 12 12 13 13 11 12 8 8 10 11 12 9 9 9 6 8 9 9 8 8 13 19 19 20 20 19 19 19 19 19 19 19 19 18 18 17 16 17
5 5 9 7 4 5 6 6 4 4 3 2 4 4 5 6 6 7 6 6 7 10 13 14 15 15 15 16 18 19 19 18 15 11 13 14 12 13 12 13 12 10 9 11 10 11 13 8 8 8 4 5 6 8 7 8 8 13 15 18 19 18 19 19 20 19 19 18 18 18 18 17 15 10
5 4 4 8 8 6 5 3 5 5 4 3 4 3 3 5 7 7 7 8 10 9 10 9 9 10 11 11 10 12 17 18 16 12 13 13 14 13 13 13 11 11 12 12 12 13 10 10 9 8 4 6 4 6 7 7 7 7 7 9 11 16 18 19 19 19 19 18 18 17 17 16 13 9
5 3 5 6 8 8 6 6 8 7 7 5 3 2 3 4 7 5 7 9 10 11 9 9 9 10 10 10 10 11 11 12 13 13 13 13 13 13 13 12 12 12 9 6 14 13 10 9 9 9 9 6 5 3 6 7 7 7 7 7 8 12 16 16 14 17 16 16 17 17 17 17 15 9
6 6 5 6 7 8 7 5 8 8 8 5 3 4 4 3 6 7 7 10 11 8 8 8 8 8 8 9 10 10 11 11 12 12 13 14 13 13 12 12 13 13 12 8 13 12 10 8 9 7 8 8 4 3 2 4 6 7 7 8 9 7 8 9 7 8 10 14 15 16 16 17 19 14
5 6 5 6 7 10 6 4 6 9 7 6 5 5 8 8 8 6 6 6 6 6 7 7 8 8 9 10 10 11 11 12 13 14 14 14 14 13 13 14 14 12 13 11 16 13 10 8 10 8 7 8 6 4 3 2 3 5 5 5 7 6 8 7 7 7 7 8 9 11 14 18 18 19
6 5 5 7 10 9 7 7 9 9 5 6 6 8 6 6 8 6 4 5 6 6 6 6 7 8 9 10 11 12 12 13 15 15 15 16 15 15 14 14 15 15 11 9 12 12 10 8 7 11 9 9 8 5 5 5 3 3 3 4 4 4 5 6 8 9 7 9 9 13 12 14 16 17
5 6 6 6 10 11 11 10 8 7 7 6 8 6 6 6 5 3 4 4 5 6 6 6 7 9 9 9 10 11 12 13 16 16 16 16 16 15 13 13 15 14 14 11 10 13 10 9 8 10 11 10 9 9 8 4 2 5 5 4 4 4 5 6 7 5 6 6 6 7 7 7 8 10
5 6 9 10 12 11 11 9 4 3 6 8 6 6 7 4 3 4 4 5 6 6 7 7 8 8 9 10 11 12 13 14 15 15 15 16 16 14 11 11 11 12 12 11 10 11 11 11 9 8 8 9 9 8 8 6 8 6 6 7 3 5 6 6 6 8 8 7 9 10 10 10 9 10
6 8 10 11 10 7 4 1 2 3 2 3 4 5 4 2 5 4 4 6 6 7 8 8 9 9 10 10 11 12 12 12 14 15 16 16 17 16 11 7 8 10 11 11 10 7 9 9 6 5 7 7 9 9 8 6 4 5 6 8 4 4 5 6 6 7 7 6 7 8 6 7 8 11
5 7 7 7 8 5 3 2 3 3 1 2 4 4 2 3 5 3 3 4 5 6 8 8 9 9 10 10 10 11 12 12 13 14 15 15 15 15 16 5 8 8 8 10 9 7 6 7 8 8 8 7 6 6 7 7 6 6 7 6 8 7 6 7 6 7 8 8 7 7 7 6 6 8
5 6 7 5 2 4 3 4 4 4 3 4 4 6 4 4 6 6 7 6 3 5 6 7 8 8 9 10 10 10 11 11 12 14 14 15 15 13 12 10 9 4 6 8 7 7 9 6 8 8 10 9 9 7 4 7 7 7 7 6 7 4 6 9 8 7 8 7 7 8 7 7 8 9
5 4 1 4 4 5 4 4 5 5 5 5 5 4 5 5 5 5 5 5 6 6 7 7 8 9 9 9 10 10 11 11 12 12 14 14 14 11 9 11 10 11 10 5 5 6 6 8 8 10 11 8 7 9 9 6 6 6 7 7 6 6 5 7 8 7 8 7 8 8 7 7 7 8
5 2 5 4 5 5 5 5 4 5 5 5 5 5 3 4 5 5 5 5 6 6 6 6 7 8 8 9 10 10 10 11 12 12 12 13 14 13 12 12 11 11 9 8 8 5 6 7 6 3 2 4 7 3 1 6 8 7 6 6 7 8 5 6 7 8 9 10 10 8 7 8 7 8
2 3 4 4 4 4 5 5 4 4 4 3 4 5 5 5 5 5 5 6 6 6 6 7 7 7 7 8 9 9 10 11 12 11 11 11 12 13 12 11 12 12 11 10 9 7 7 5 8 5 4 3 4 5 13 9 3 4 4 5 6 7 6 6 6 7 9 7 7 9 8 6 7 7
4 2 3 4 4 4 5 3 3 3 4 3 4 4 4 6 5 6 6 7 6 6 6 7 7 8 8 8 8 8 9 10 10 11 12 12 13 13 11 11 11 10 10 11 11 9 7 5 6 9 7 7 6 5 1 11 13 2 4 5 4 5 4 6 6 6 7 7 8 8 8 9 8 7
4 3 3 4 3 3 4 2 3 3 3 3 4 5 4 5 6 5 6 6 5 5 6 6 7 7 8 8 8 8 9 9 10 11 11 12 12 12 12 12 12 11 11 11 9 9 8 9 9 2 8 7 10 8 5 1 9 12 4 2 3 5 5 5 6 7 7 8 8 8 9 8 8 8
4 3 4 3 2 2 1 1 2 2 3 3 3 4 3 4 4 5 5 5 5 5 6 6 6 7 7 7 8 9 9 8 8 10 11 11 11 12 12 12 12 12 12 11 10 10 7 8 9 12 5 9 9 9 6 3 4 10 10 2 1 1 4 5 7 7 6 6 8 7 5 7 8 7
4 4 3 3 2 2 3 2 2 2 3 4 4 4 3 3 5 5 5 5 5 6 6 6 7 7 7 7 7 8 8 9 10 10 11 11 10 11 12 12 11 11 11 13 13 13 13 12 13 10 12 6 9 7 9 9 5 0 11 16 3 1 1 4 6 5 5 6 5 3 2 2 5 6
4 3 3 3 4 3 4 4 4 3 3 4 4 4 4 4 4 5 5 6 6 6 6 6 7 7 7 8 7 7 7 8 8 8 9 9 10 10 10 10 9 10 10 12 13 13 12 15 13 13 11 12 7 12 12 11 7 7 11 15 17 11 4 2 1 3 5 5 5 6 6 4 4 2
4 5 4 4 4 4 3 4 4 5 4 4 4 4 5 5 5 5 5 6 6 6 7 7 7 7 7 8 8 8 8 8 8 8 9 10 10 10 12 11 9 10 9 10 11 12 15 13 15 19 16 11 9 4 6 11 12 8 10 9 12 19 20 15 7 4 3 2 2 7 7 7 7 6
5 5 3 4 4 3 4 4 4 4 5 4 5 5 4 5 4 7 6 7 6 6 6 7 7 7 7 7 7 7 7 8 8 9 9 9 10 11 12 10 10 10 9 9 9 10 10 11 13 12 12 13 12 9 12 11 10 8 7 6 8 12 19 19 19 16 13 8 4 1 2 2 1 4
4 5 4 3 4 4 4 5 4 4 4 5 4 5 4 5 5 6 6 6 6 6 7 7 7 7 7 7 7 7 6 8 8 8 8 8 9 9 10 9 9 8 8 7 7 8 9 10 11 11 11 12 11 10 10 9 7 6 7 7 7 7 10 14 16 18 20 21 17 11 5 2 3 6
4 5 4 4 5 4 4 4 4 4 4 4 4 4 5 4 5 5 5 5 6 6 6 6 7 7 8 7 7 7 7 7 7 7 8 8 8 8 8 9 9 9 8 8 7 7 6 7 9 9 11 11 9 9 9 8 8 6 6 7 6 7 10 9 10 9 15 23 22 22 23 18 12 10
3 4 4 4 5 5 4 4 4 4 4 4 4 5 4 4 4 5 5 5 6 6 6 7 7 7 7 7 7 8 8 8 7 7 6 7 7 8 8 8 9 9 9 8 7 8 7 6 7 7 8 8 8 7 8 9 8 6 7 8 9 8 8 8 10 11 11 12 16 20 22 24 23 20
Wind_Direction
234 243 229 211 230 242 229 229 222 214 190 197 198 186 209 261 298 311 307 312 316 302 346 324 314 338 318 312 311 306 298 294 294 289 278 269 260 255 251 248 246 243 240 236 235 234 234 234 234 233 232 232 231 231 232 233 233 232 233 234 235 236 236 236 235 235 235 235 235 236 236 238 239 241
210 219 233 225 234 244 225 221 215 193 198 200 204 203 203 201 270 284 296 295 283 286 306 284 296 317 312 309 303 303 298 296 295 286 282 278 267 256 253 250 247 244 242 239 237 235 233 232 233 232 231 231 230 230 230 232 233 233 233 233 235 236 237 236 235 235 235 235 236 236 237 238 239 241
220 223 236 240 237 238 226 228 203 192 168 180 184 213 180 188 212 264 278 288 265 280 307 296 287 299 303 304 303 299 295 294 296 288 279 275 271 264 257 251 248 245 243 240 238 236 234 232 232 231 230 230 230 229 229 230 231 232 233 233 233 234 235 235 235 235 235 236 236 235 236 237 239 240
225 235 263 265 244 237 218 214 201 193 186 165 163 184 212 237 209 210 225 257 277 292 288 292 295 290 294 302 299 298 298 295 298 291 282 275 274 270 262 255 248 245 243 240 237 235 234 234 233 231 230 229 229 229 228 229 229 231 231 231 232 232 233 234 234 234 234 235 234 234 234 235 237 238
214 222 235 254 246 230 209 210 203 200 196 185 184 188 198 236 237 205 227 261 284 287 274 282 288 292 296 295 293 297 299 300 299 294 283 277 271 268 262 256 247 242 241 239 238 235 233 232 232 233 231 230 229 228 228 228 229 230 231 230 230 231 232 232 232 232 232 233 233 234 234 234 234 233
227 232 242 256 254 234 220 208 204 202 200 198 199 209 201 225 246 214 209 247 277 295 302 295 283 287 290 289 292 296 300 300 299 295 292 282 272 267 265 257 255 244 238 236 236 235 235 232 231 232 232 231 231 230 229 228 228 229 230 230 229 229 229 230 231 231 231 231 232 233 234 234 233 231
238 243 243 248 246 242 235 229 218 205 206 205 205 218 201 215 234 231 211 239 275 286 294 294 298 298 300 293 298 298 292 291 292 292 289 285 279 269 262 260 257 253 245 236 233 235 236 236 233 231 231 230 229 230 230 229 228 229 229 229 228 227 227 228 229 231 231 231 231 232 233 234 233 232
237 238 247 253 247 245 246 244 234 224 217 212 217 219 218 212 236 239 227 219 248 276 291 297 297 298 301 296 292 292 291 291 291 286 285 280 276 274 269 263 259 254 250 245 238 235 236 236 234 231 230 229 228 227 228 228 228 228 228 228 227 227 226 226 227 229 231 232 232 232 233 234 234 232
240 244 238 248 246 243 244 254 249 240 232 230 221 224 224 222 234 242 235 242 244 270 287 292 291 294 291 288 291 291 296 297 291 288 285 285 281 276 270 268 262 255 246 243 240 236 235 235 235 232 229 228 227 226 227 228 229 229 228 227 226 226 226 226 226 227 229 231 232 233 233 234 234 232
241 240 245 248 246 241 228 236 235 233 237 236 231 229 231 232 236 241 250 248 256 266 276 286 295 298 298 301 291 294 293 295 300 297 289 284 278 277 277 268 265 263 251 242 239 239 239 239 238 236 234 231 228 225 224 224 226 228 229 228 226 225 225 225 226 225 226 228 231 232 232 233 232 232
242 242 245 248 239 226 222 228 233 241 244 234 236 229 230 238 232 242 254 261 273 278 285 288 284 290 289 288 298 299 292 287 284 290 299 296 286 270 267 274 269 260 258 248 238 231 223 227 231 233 232 231 229 228 225 224 224 225 227 227 226 224 224 225 225 226 225 226 228 230 230 230 231 230
248 246 244 240 232 224 227 226 239 234 247 239 240 238 232 238 231 245 260 270 275 285 291 287 291 290 293 298 286 289 295 296 292 282 297 301 304 301 284 266 272 270 258 256 252 239 235 235 233 235 235 234 234 233 232 230 227 225 224 225 225 224 224 225 225 225 225 224 225 226 226 227 228 228
248 254 252 253 248 232 232 228 233 237 229 229 242 254 237 233 230 246 259 267 277 285 289 289 283 286 292 293 301 307 307 304 299 300 296 289 289 291 292 284 261 257 260 260 252 242 222 225 225 220 225 230 229 233 229 232 231 229 226 225 224 224 224 223 224 225 224 224 222 222 223 224 224 226
253 248 252 256 249 238 237 245 251 255 254 242 233 244 238 230 228 237 249 265 274 284 288 285 290 292 290 296 301 300 299 297 295 292 291 289 294 294 289 284 268 252 246 254 253 247 228 224 231 219 226 229 214 221 216 222 223 224 221 221 222 223 224 223 223 222 223 223 221 220 220 221 223 223
270 274 263 258 257 249 255 259 261 261 259 255 242 241 239 230 220 235 250 263 275 279 278 283 283 277 282 288 295 297 299 299 298 295 291 288 290 291 297 296 297 229 225 239 251 254 229 216 232 230 230 230 217 216 223 221 221 224 220 217 219 220 220 221 221 221 221 221 219 218 218 218 220 221
255 266 271 264 253 255 252 256 263 265 261 256 253 245 240 241 236 230 229 259 280 272 271 276 275 275 278 287 296 297 299 301 302 296 291 283 280 280 279 276 276 277 220 247 250 254 238 209 226 235 232 230 226 224 221 220 219 219 221 219 218 217 219 219 219 219 218 218 217 217 217 217 218 219
249 256 261 267 264 259 264 263 258 258 270 270 259 246 244 244 235 233 235 234 239 257 261 264 275 273 279 289 289 290 294 299 295 298 293 287 274 265 267 268 274 274 267 257 249 254 242 199 223 233 234 229 228 229 222 218 216 218 219 219 217 217 216 217 218 218 217 216 215 216 216 215 216 216
246 247 248 255 265 266 267 266 264 260 256 261 264 260 252 254 252 248 246 242 236 236 243 254 266 275 274 277 285 289 293 296 296 297 293 294 287 278 267 266 263 266 270 268 263 257 245 209 222 232 235 224 229 228 221 213 214 215 216 216 216 216 215 215 216 216 216 215 213 214 215 214 214 213
247 251 245 243 248 261 271 268 261 257 258 258 259 263 268 263 265 266 268 259 244 234 228 235 248 262 273 276 279 284 286 283 282 279 282 283 283 281 278 270 259 262 251 258 262 257 251 211 223 233 230 223 229 226 225 213 212 214 214 215 215 215 215 215 215 215 214 214 213 213 213 213 212 211
254 252 245 244 251 256 262 268 262 252 242 226 251 266 272 280 272 264 253 259 263 259 256 258 262 269 271 276 282 284 285 285 285 281 278 277 274 276 274 267 262 252 239 225 242 255 256 223 228 237 225 220 231 228 227 214 210 211 212 214 214 213 212 213 213 214 213 213 213 212 211 209 208 208
261 256 251 248 257 260 260 263 254 228 175 203 252 265 273 275 280 279 291 270 265 265 266 268 268 267 267 273 281 284 283 279 278 286 284 279 277 272 269 266 257 250 236 230 225 242 253 233 229 240 219 208 225 228 224 220 208 209 210 211 211 209 209 210 212 213 212 212 211 210 207 204 203 203
270 268 270 270 252 259 266 258 216 187 175 229 253 259 270 287 293 296 302 302 292 288 284 280 278 279 285 294 292 287 284 285 287 288 287 286 280 273 266 264 257 256 232 230 209 228 237 234 219 227 208 205 225 222 221 218 209 206 212 211 208 207 207 209 211 212 213 211 209 208 204 201 195 187
266 276 281 283 286 284 276 215 203 212 208 242 250 244 266 287 293 294 307 305 304 305 308 306 309 304 298 294 292 291 289 288 289 285 282 284 277 275 273 266 258 247 241 225 194 218 229 220 220 198 209 223 223 207 216 211 210 193 193 205 212 211 208 209 209 211 212 209 207 205 200 195 179 178
292 284 286 286 285 279 255 220 212 223 229 254 247 220 253 283 285 301 303 297 293 291 287 290 289 286 290 295 295 296 296 296 296 293 285 280 274 268 270 262 248 241 239 211 188 211 223 212 219 194 206 204 233 219 193 213 210 204 190 192 198 211 210 213 217 217 212 208 204 200 195 186 181 167
275 290 281 278 275 269 261 216 214 256 273 233 212 216 236 248 284 309 292 296 293 295 296 291 291 292 300 302 298 296 299 300 303 300 292 283 274 265 262 258 250 243 234 219 184 202 217 197 209 186 206 211 204 183 233 220 211 207 198 191 203 198 182 204 203 206 209 207 203 198 192 186 187 188
263 257 268 273 276 282 285 174 267 278 266 206 208 222 231 271 290 292 285 291 299 293 292 293 297 302 306 305 304 304 307 308 307 306 300 290 280 266 254 251 247 240 230 210 191 204 205 202 196 189 194 198 224 179 161 213 209 209 197 202 208 186 179 180 185 198 187 187 186 192 193 190 191 195
257 269 269 274 278 290 321 301 282 268 236 196 221 228 254 275 289 295 305 304 303 299 298 300 301 304 302 306 310 311 313 313 312 310 304 297 290 280 264 243 236 236 232 213 198 208 202 209 187 188 193 197 199 187 196 190 212 160 165 190 186 154 177 173 188 196 161 167 192 191 187 188 190 193
264 271 269 273 296 309 303 291 274 254 203 213 215 234 259 286 323 324 324 316 304 304 299 307 313 310 304 303 307 309 309 309 312 310 307 305 301 291 266 244 227 227 226 224 202 202 201 207 200 198 193 186 189 189 203 218 190 172 173 147 141 153 163 181 185 170 163 157 123 145 145 161 193 189
255 265 278 294 296 295 291 285 257 231 219 231 235 242 255 289 357 339 338 324 319 314 316 316 312 305 306 306 301 303 302 304 309 313 317 317 316 310 279 227 215 213 217 219 208 196 199 205 204 196 189 187 190 197 184 191 186 185 170 151 182 189 170 176 164 159 158 160 169 164 182 168 175 190
281 293 297 294 293 292 286 246 145 184 194 227 278 272 245 10 345 340 341 338 332 324 320 320 316 310 307 308 306 301 309 319 321 324 326 327 331 334 319 208 205 207 214 215 211 197 197 201 193 180 192 200 197 188 196 169 184 181 170 185 174 109 184 170 178 164 150 169 172 185 190 182 171 165
329 303 295 287 286 281 277 222 141 124 75 34 11 13 1 16 358 339 344 332 324 320 321 318 315 311 310 304 309 325 327 324 325 329 328 330 334 339 339 265 185 194 209 211 214 210 186 190 193 185 204 212 214 217 191 182 181 171 190 183 162 192 175 167 172 172 177 176 175 174 183 183 178 188
306 300 293 306 71 116 94 58 35 28 23 37 23 9 360 17 353 343 340 340 318 311 301 306 309 316 320 321 325 323 325 325 326 329 332 334 334 341 344 5 10 329 205 200 208 213 213 190 175 195 209 193 191 203 172 187 193 183 189 188 193 183 142 180 176 184 171 161 148 159 182 185 176 185
312 290 24 56 52 50 61 52 43 26 25 28 16 8 2 360 348 336 346 347 338 327 324 330 329 325 325 325 329 328 328 330 329 330 333 330 334 334 347 10 8 14 3 332 222 209 207 204 193 195 204 203 207 174 165 193 211 189 190 186 192 190 182 179 182 174 156 155 166 167 180 188 190 188
305 330 64 59 60 55 55 52 41 28 26 23 2 345 356 358 349 345 343 341 331 329 328 326 326 328 328 331 334 332 330 330 330 332 335 329 331 343 358 5 7 6 6 7 1 321 218 193 173 139 148 75 47 28 232 197 188 194 192 183 183 201 184 169 175 168 169 183 171 166 172 188 197 192
224 57 78 57 54 52 57 57 39 33 23 11 352 346 348 356 349 347 339 338 333 334 333 330 328 326 334 332 332 331 331 331 330 333 335 333 336 343 349 7 9 8 6 0 1 353 332 196 166 170 126 116 120 74 50 27 219 177 176 185 196 191 185 177 171 171 176 174 171 180 190 195 202 196
70 67 77 66 53 57 56 43 43 29 21 358 351 343 353 359 352 349 345 334 331 330 333 336 332 335 334 333 330 333 331 334 334 338 339 343 343 342 346 0 7 6 8 9 1 354 357 351 181 165 172 154 163 158 76 34 45 11 183 203 187 193 171 175 183 175 172 178 183 183 182 194 206 194
102 81 82 77 69 70 72 53 48 31 13 4 359 358 1 4 351 340 332 325 330 336 334 332 330 329 329 330 334 339 341 343 341 337 343 343 343 343 346 353 0 6 11 11 0 0 5 24 19 205 180 180 179 191 141 159 58 46 4 227 205 187 177 161 172 192 192 185 188 191 197 193 202 198
113 106 95 91 90 85 87 53 36 33 22 20 17 2 0 1 346 334 325 336 341 338 337 337 329 328 331 334 341 345 346 343 338 343 349 348 347 348 348 348 354 357 4 4 9 11 0 21 32 21 318 197 184 164 140 52 38 8 357 256 235 198 156 161 176 193 197 196 196 196 184 202 208 196
104 111 111 106 84 68 46 24 28 27 25 21 22 10 356 1 347 340 346 347 339 339 335 337 340 335 337 339 343 344 344 348 350 351 349 348 348 349 348 348 351 349 358 8 7 11 13 19 23 14 9 306 193 145 120 109 68 152 34 39 53 16 249 200 196 187 189 194 199 175 152 34 44 92
84 76 70 74 63 51 53 41 40 26 32 20 17 20 16 359 353 346 346 346 344 340 337 338 335 334 342 344 346 342 346 352 351 346 348 345 347 350 354 348 346 346 357 12 15 7 12 16 15 13 10 11 36 103 111 106 120 70 57 39 43 61 35 323 257 197 202 185 159 181 184 136 150 179
84 81 68 77 65 50 62 52 43 43 36 24 19 19 17 3 356 355 347 349 342 342 342 339 339 340 340 343 347 350 350 348 349 349 349 351 349 352 354 353 354 355 1 13 8 7 16 10 7 13 21 17 6 327 84 80 63 51 60 52 47 57 56 51 53 62 45 4 205 189 184 180 170 169
96 98 97 75 75 55 63 61 47 49 35 31 32 23 6 6 4 356 354 351 348 343 339 340 341 339 339 339 344 347 353 350 350 347 352 354 351 349 354 359 356 351 357 3 3 8 1 6 8 17 27 25 19 31 65 79 89 75 72 62 59 57 66 63 57 62 65 53 24 325 136 118 113 187
101 99 88 79 77 68 63 63 50 47 39 38 37 25 16 1 356 0 358 352 346 345 344 340 340 340 339 337 341 341 346 353 348 348 347 353 355 353 350 350 348 344 348 346 351 4 9 7 13 17 26 37 29 24 42 53 63 68 69 59 49 51 60 61 59 56 62 65 65 66 26 317 181 192
114 105 96 90 83 79 71 64 55 41 39 37 34 34 19 11 1 357 350 348 346 344 336 338 339 342 340 336 338 341 352 348 345 346 348 348 350 348 349 348 351 350 353 359 353 5 5 11 12 14 30 33 26 32 32 29 38 40 54 57 47 41 55 51 50 40 47 49 43 45 43 41 36 42
114 113 107 97 97 89 83 69 59 45 40 30 32 26 27 14 6 351 349 347 347 343 342 342 340 340 339 335 344 351 345 343 344 345 344 350 352 354 355 355 357 354 360 354 358 3 3 16 19 14 29 30 29 32 32 42 38 32 38 47 46 43 47 42 48 45 42 50 27 42 53 46 35 38